sat.trackr.live / text

‹ back to catalog

STARLINK-32243

NORAD 60367 · 2024-138N

PAYLOAD ACTIVE UNKNOWN

§ Identity

Operator
Country
US
Launch date
2024-08-04
Launch site
AFWTR
Launch vehicle
Mass (kg)
RCS (m²)

Purposes: comms

External: N2YO · Heavens-Above · Gunter

§ Orbital elements

Epoch: 2026-09-21T21:27:14.549760Z

Period
94.01 min
Inclination
53.1576°
Eccentricity
0.0001168
Mean motion
15.31696043 rev/d
Perigee alt
470.0 km
Apogee alt
471.6 km
Semi-major
6,848.9 km
B*
-9.3812e-5
RAAN
117.0986°
Arg perigee
89.7284°
Mean anomaly
270.3851°
Rev number
12,068

§ Raw data

STARLINK-322431 60367U 24138N   26264.89391840 -.00003275  00000+0 -93812-4 0  99972 60367  53.1576 117.0986 0001168  89.7284 270.3851 15.31696043120688

JSON: /api/v1/satellites/60367 · /tle

For live sub-satellite position, see the globe view (requires WebGL).

§ Visibility from observer

Set your observer location to see the next 7 days of passes ≥ 10°. The values pass through the URL so the page stays shareable.

No JS? Fill the form by hand. The geolocation button needs JavaScript.